AIC2145 VIDP-WADD

Flight info

Callsign AIC2145
Flight time N/A
Altitude 33000
Route ITBAN7C ITBAN L759 LAMBU/N0455F350 L759 PUT B579 VPL W531 VIH A464 VKL Y507 MAKNA Y511 TOPOR A464 IRTAD B338 AKVOM M630 JUNHA M635 SURGA/N0451F370 M635 UDONO
Aircraft A21N/M-SDE2E3FGHIRWXY/LB1

Departure

Time 2026-04-27 08:21
Airport Indira Gandhi International Airport (VIDP)

Arrival

Time N/A
Airport Denpasar I Gusti Ngurah Rai International Airport (WADD)
Time Latitude Longitude Altitude Speed Heading
2026-04-27 07:30 28.56040 77.08124 753 ft 0 kts 63°
2026-04-27 07:45 28.56033 77.08110 750 ft 4 kts 60°
2026-04-27 07:45 28.56018 77.08085 751 ft 4 kts 46°
2026-04-27 07:45 28.55998 77.08068 751 ft 3 kts
2026-04-27 07:45 28.55985 77.08069 751 ft 0 kts 323°
2026-04-27 07:53 28.54127 77.10944 753 ft 0 kts 284°
2026-04-27 07:57 28.56039 77.08124 753 ft 0 kts 63°
2026-04-27 08:06 28.56027 77.08101 753 ft 4 kts 46°
2026-04-27 08:07 28.56006 77.08083 752 ft 4 kts 21°
2026-04-27 08:07 28.55980 77.08077 750 ft 4 kts 351°
2026-04-27 08:07 28.55964 77.08082 751 ft 1 kts 330°
2026-04-27 08:10 28.55981 77.08071 751 ft 5 kts 330°
2026-04-27 08:10 28.56010 77.08046 752 ft 4 kts 313°
2026-04-27 08:11 28.56015 77.08040 750 ft 4 kts 311°
2026-04-27 08:11 28.56004 77.07978 749 ft 13 kts 216°
2026-04-27 08:11 28.55885 77.07937 753 ft 20 kts 193°
2026-04-27 08:12 28.55752 77.07899 750 ft 19 kts 194°
2026-04-27 08:12 28.55626 77.07863 753 ft 18 kts 194°
2026-04-27 08:12 28.55508 77.07828 749 ft 17 kts 193°
2026-04-27 08:12 28.55396 77.07797 749 ft 16 kts 194°
2026-04-27 08:13 28.55291 77.07766 750 ft 15 kts 194°
2026-04-27 08:13 28.55193 77.07737 751 ft 14 kts 194°
2026-04-27 08:13 28.55101 77.07711 750 ft 13 kts 193°
2026-04-27 08:13 28.55041 77.07760 750 ft 11 kts 109°
2026-04-27 08:14 28.55023 77.07843 753 ft 12 kts 105°
2026-04-27 08:14 28.54994 77.07965 751 ft 20 kts 104°
2026-04-27 08:14 28.54954 77.08141 750 ft 26 kts 104°
2026-04-27 08:14 28.54907 77.08342 752 ft 26 kts 104°
2026-04-27 08:15 28.54863 77.08533 753 ft 24 kts 104°
2026-04-27 08:15 28.54821 77.08716 754 ft 23 kts 104°
2026-04-27 08:15 28.54794 77.08831 751 ft 22 kts 105°
2026-04-27 08:15 28.54756 77.08998 751 ft 21 kts 104°
2026-04-27 08:16 28.54708 77.09205 750 ft 20 kts 105°
2026-04-27 08:16 28.54673 77.09357 754 ft 21 kts 105°
2026-04-27 08:16 28.54634 77.09526 753 ft 22 kts 104°
2026-04-27 08:16 28.54609 77.09636 750 ft 21 kts 104°
2026-04-27 08:17 28.54573 77.09791 751 ft 20 kts 104°
2026-04-27 08:17 28.54536 77.09947 752 ft 24 kts 105°
2026-04-27 08:17 28.54485 77.10173 752 ft 32 kts 105°
2026-04-27 08:17 28.54429 77.10414 755 ft 31 kts 104°
2026-04-27 08:18 28.54376 77.10642 753 ft 29 kts 104°
2026-04-27 08:18 28.54326 77.10862 753 ft 27 kts 105°
2026-04-27 08:18 28.54293 77.10983 749 ft 6 kts 103°
2026-04-27 08:18 28.54283 77.11044 752 ft 13 kts 98°
2026-04-27 08:19 28.54248 77.11164 752 ft 16 kts 146°
2026-04-27 08:19 28.54143 77.11164 750 ft 15 kts 195°
2026-04-27 08:19 28.54103 77.11060 752 ft 23 kts 282°
2026-04-27 08:19 28.54177 77.10708 755 ft 67 kts 284°
2026-04-27 08:20 28.54325 77.10025 752 ft 112 kts 284°
2026-04-27 08:20 28.54548 77.08991 753 ft 154 kts 283°
2026-04-27 08:20 28.54827 77.07690 754 ft 182 kts 284°
2026-04-27 08:20 28.55124 77.06315 1146 ft 172 kts 285°
2026-04-27 08:21 28.55413 77.05003 1519 ft 171 kts 287°
2026-04-27 08:21 28.55732 77.03689 1686 ft 180 kts 288°
2026-04-27 08:21 28.56010 77.02235 1771 ft 195 kts 270°
2026-04-27 08:21 28.55465 77.00815 1895 ft 209 kts 224°
2026-04-27 08:22 28.54090 77.00137 2038 ft 228 kts 188°
2026-04-27 08:22 28.52460 77.00053 2241 ft 242 kts 182°
2026-04-27 08:22 28.50732 77.00019 2402 ft 255 kts 182°
2026-04-27 08:22 28.48897 76.99932 2545 ft 272 kts 186°
2026-04-27 08:23 28.46976 76.99787 2889 ft 279 kts 186°
2026-04-27 08:23 28.45038 76.99615 3413 ft 280 kts 187°
2026-04-27 08:23 28.43085 76.99426 3908 ft 282 kts 187°
2026-04-27 08:23 28.41118 76.99227 4442 ft 284 kts 187°
2026-04-27 08:24 28.39143 76.99024 4995 ft 286 kts 188°
2026-04-27 08:24 28.37151 76.98817 5519 ft 288 kts 188°
2026-04-27 08:24 28.35149 76.98608 6097 ft 290 kts 189°
2026-04-27 08:24 28.33132 76.98394 6611 ft 293 kts 189°
2026-04-27 08:25 28.31082 76.98177 7092 ft 297 kts 188°
2026-04-27 08:25 28.29007 76.98095 7657 ft 302 kts 178°
2026-04-27 08:25 28.26952 76.98656 8192 ft 309 kts 158°
2026-04-27 08:25 28.25038 76.99791 8740 ft 313 kts 150°
2026-04-27 08:26 28.23224 77.01191 9311 ft 317 kts 145°
2026-04-27 08:26 28.21471 77.02736 9823 ft 322 kts 143°
2026-04-27 08:26 28.19700 77.04377 10056 ft 336 kts 142°
2026-04-27 08:26 28.17856 77.06100 10265 ft 351 kts 142°
2026-04-27 08:27 28.15922 77.07887 10474 ft 365 kts 142°
2026-04-27 08:27 28.13905 77.09720 10666 ft 377 kts 143°
2026-04-27 08:27 28.11854 77.11559 11025 ft 383 kts 143°
2026-04-27 08:27 28.09758 77.13425 11514 ft 384 kts 143°
2026-04-27 08:28 28.07646 77.15294 11987 ft 386 kts 143°
2026-04-27 08:28 28.05524 77.17167 12473 ft 388 kts 143°
2026-04-27 08:28 28.03392 77.19048 12978 ft 389 kts 144°
2026-04-27 08:28 28.01253 77.20934 13457 ft 391 kts 144°
2026-04-27 08:29 27.99099 77.22834 13885 ft 394 kts 144°
2026-04-27 08:29 27.96923 77.24751 14231 ft 399 kts 144°
2026-04-27 08:29 27.94724 77.26689 14641 ft 401 kts 144°
2026-04-27 08:29 27.92517 77.28633 15084 ft 403 kts 144°
2026-04-27 08:30 27.90298 77.30587 15532 ft 406 kts 144°
2026-04-27 08:30 27.88066 77.32552 15961 ft 408 kts 144°
2026-04-27 08:30 27.85821 77.34527 16389 ft 410 kts 144°
2026-04-27 08:30 27.83564 77.36511 16804 ft 413 kts 144°
2026-04-27 08:31 27.81289 77.38510 17200 ft 415 kts 144°
2026-04-27 08:31 27.79004 77.40516 17593 ft 417 kts 144°
2026-04-27 08:31 27.76706 77.42532 17954 ft 419 kts 144°
2026-04-27 08:31 27.74428 77.44530 18266 ft 421 kts 144°
2026-04-27 08:32 27.72107 77.46565 18583 ft 423 kts 144°
2026-04-27 08:32 27.69780 77.48604 18889 ft 425 kts 144°
2026-04-27 08:32 27.67439 77.50655 19190 ft 427 kts 144°
2026-04-27 08:32 27.65089 77.52712 19486 ft 428 kts 144°
2026-04-27 08:33 27.62728 77.54776 19789 ft 430 kts 144°
2026-04-27 08:33 27.60359 77.56847 20085 ft 432 kts 144°
2026-04-27 08:33 27.57977 77.58928 20393 ft 434 kts 144°
2026-04-27 08:33 27.55586 77.61016 20696 ft 436 kts 144°
2026-04-27 08:34 27.53177 77.63118 20997 ft 439 kts 144°
2026-04-27 08:34 27.50763 77.65224 21328 ft 440 kts 144°
2026-04-27 08:34 27.48338 77.67338 21661 ft 441 kts 144°
2026-04-27 08:34 27.45907 77.69456 21966 ft 444 kts 144°
2026-04-27 08:35 27.43455 77.71590 22292 ft 446 kts 144°
2026-04-27 08:35 27.40994 77.73731 22608 ft 448 kts 144°
2026-04-27 08:35 27.38526 77.75877 22920 ft 450 kts 144°
2026-04-27 08:35 27.36044 77.78034 23223 ft 452 kts 144°
2026-04-27 08:36 27.33550 77.80200 23477 ft 454 kts 144°
2026-04-27 08:36 27.31042 77.82378 23736 ft 456 kts 144°
2026-04-27 08:36 27.28522 77.84565 23997 ft 458 kts 144°
2026-04-27 08:36 27.25994 77.86757 24255 ft 460 kts 144°
2026-04-27 08:37 27.23457 77.88956 24517 ft 461 kts 144°
2026-04-27 08:37 27.20917 77.91156 24812 ft 462 kts 144°
2026-04-27 08:37 27.18367 77.93364 25051 ft 464 kts 144°
2026-04-27 08:37 27.15807 77.95579 25287 ft 466 kts 144°
2026-04-27 08:38 27.13235 77.97800 25509 ft 468 kts 144°
2026-04-27 08:38 27.10646 78.00030 25739 ft 470 kts 144°
2026-04-27 08:38 27.08052 78.02264 25975 ft 471 kts 144°
2026-04-27 08:38 27.05446 78.04506 26200 ft 473 kts 144°
2026-04-27 08:39 27.02831 78.06755 26419 ft 474 kts 144°
2026-04-27 08:39 27.00210 78.09008 26636 ft 476 kts 144°
2026-04-27 08:39 26.97578 78.11269 26851 ft 477 kts 144°
2026-04-27 08:39 26.94940 78.13534 27077 ft 478 kts 144°
2026-04-27 08:40 26.92293 78.15806 27293 ft 480 kts 144°
2026-04-27 08:40 26.89640 78.18081 27488 ft 481 kts 144°
2026-04-27 08:40 26.86977 78.20365 27680 ft 483 kts 144°
2026-04-27 08:40 26.84336 78.22627 27887 ft 484 kts 144°
2026-04-27 08:41 26.81623 78.24949 28132 ft 485 kts 144°
2026-04-27 08:41 26.78982 78.27209 28402 ft 484 kts 144°
2026-04-27 08:41 26.76311 78.29494 28677 ft 483 kts 144°
2026-04-27 08:41 26.73638 78.31778 28944 ft 483 kts 144°
2026-04-27 08:42 26.70969 78.34058 29215 ft 483 kts 144°
2026-04-27 08:42 26.68303 78.36333 29479 ft 482 kts 144°
2026-04-27 08:42 26.65639 78.38606 29773 ft 481 kts 144°
2026-04-27 08:42 26.62984 78.40870 30009 ft 480 kts 144°
2026-04-27 08:43 26.60331 78.43130 30233 ft 479 kts 144°
2026-04-27 08:43 26.57685 78.45383 30462 ft 478 kts 144°
2026-04-27 08:43 26.55038 78.47635 30684 ft 478 kts 144°
2026-04-27 08:43 26.52397 78.49881 30918 ft 477 kts 144°
2026-04-27 08:44 26.49759 78.52123 31136 ft 476 kts 144°
2026-04-27 08:44 26.47122 78.54363 31355 ft 476 kts 144°
2026-04-27 08:44 26.44487 78.56600 31584 ft 475 kts 145°
2026-04-27 08:44 26.41859 78.58830 31815 ft 474 kts 145°
2026-04-27 08:45 26.39239 78.61052 32090 ft 472 kts 145°
2026-04-27 08:45 26.36634 78.63260 32386 ft 469 kts 145°
2026-04-27 08:45 26.34034 78.65462 32618 ft 468 kts 145°
2026-04-27 08:45 26.31436 78.67661 32689 ft 470 kts 145°
2026-04-27 08:46 26.26223 78.72068 32698 ft 471 kts 145°
2026-04-27 08:46 26.21036 78.76450 32706 ft 471 kts 145°
2026-04-27 08:47 26.15812 78.80858 32683 ft 471 kts 145°
2026-04-27 08:47 26.10571 78.85222 32686 ft 470 kts 146°
2026-04-27 08:48 26.05320 78.89547 32685 ft 469 kts 146°
2026-04-27 08:48 26.00071 78.93863 32681 ft 469 kts 146°
2026-04-27 08:49 25.94829 78.98176 32678 ft 469 kts 146°
2026-04-27 08:49 25.89580 79.02492 32655 ft 469 kts 146°
2026-04-27 08:50 25.84329 79.06808 32661 ft 469 kts 146°
2026-04-27 08:50 25.79094 79.11104 32664 ft 468 kts 146°
2026-04-27 08:51 25.73864 79.15393 32656 ft 467 kts 146°
2026-04-27 08:51 25.68629 79.19680 32653 ft 467 kts 146°
2026-04-27 08:52 25.63434 79.23929 32652 ft 467 kts 146°
2026-04-27 08:52 25.58202 79.28203 32633 ft 467 kts 146°
2026-04-27 08:53 25.52969 79.32473 32638 ft 466 kts 146°
2026-04-27 08:53 25.47765 79.36716 32641 ft 464 kts 146°
2026-04-27 08:54 25.42572 79.40944 32643 ft 464 kts 146°
2026-04-27 08:54 25.37374 79.45171 32637 ft 464 kts 146°
2026-04-27 08:55 25.32164 79.49404 32634 ft 465 kts 146°
2026-04-27 08:55 25.26952 79.53634 32634 ft 465 kts 146°
2026-04-27 08:56 25.21755 79.57847 32630 ft 462 kts 146°
2026-04-27 08:56 25.16605 79.62018 32632 ft 461 kts 146°
2026-04-27 08:57 25.08839 79.68298 32637 ft 461 kts 146°
2026-04-27 08:58 25.03664 79.72478 32631 ft 461 kts 146°
2026-04-27 08:58 24.98490 79.76652 32636 ft 461 kts 146°
2026-04-27 08:59 24.93314 79.80824 32637 ft 461 kts 146°
2026-04-27 08:59 24.88095 79.85025 32637 ft 465 kts 146°
2026-04-27 09:00 24.82900 79.89204 32635 ft 466 kts 145°
2026-04-27 09:00 24.78206 79.94128 32637 ft 468 kts 133°
2026-04-27 09:01 24.73967 79.99579 32638 ft 469 kts 131°
2026-04-27 09:01 24.69820 80.05119 32632 ft 469 kts 131°
2026-04-27 09:02 24.65678 80.10651 32634 ft 468 kts 131°
2026-04-27 09:02 24.61524 80.16159 32633 ft 468 kts 131°
2026-04-27 09:03 24.57355 80.21663 32627 ft 468 kts 131°
2026-04-27 09:03 24.53184 80.27160 32633 ft 469 kts 131°
2026-04-27 09:04 24.49033 80.32625 32634 ft 469 kts 132°
2026-04-27 09:04 24.44854 80.38122 32641 ft 469 kts 131°
2026-04-27 09:05 24.40674 80.43616 32638 ft 468 kts 131°
2026-04-27 09:05 24.36500 80.49095 32635 ft 467 kts 131°
2026-04-27 09:06 24.32338 80.54552 32645 ft 466 kts 132°
2026-04-27 09:06 24.28880 80.59082 32644 ft 466 kts 132°
2026-04-27 09:07 24.24715 80.64529 32639 ft 466 kts 132°
2026-04-27 09:07 24.19877 80.70853 32650 ft 466 kts 132°
2026-04-27 09:08 24.16385 80.75410 32649 ft 466 kts 132°
2026-04-27 09:08 24.12213 80.80851 32646 ft 466 kts 132°
2026-04-27 09:09 24.08044 80.86281 32658 ft 466 kts 132°
2026-04-27 09:09 24.03873 80.91709 32659 ft 466 kts 132°
2026-04-27 09:10 23.99693 80.97142 32659 ft 467 kts 132°
2026-04-27 09:10 23.95537 81.02537 32673 ft 467 kts 132°
2026-04-27 09:11 23.91320 81.08005 32669 ft 467 kts 132°
2026-04-27 09:11 23.87163 81.13391 32678 ft 467 kts 132°
2026-04-27 09:12 23.82969 81.18817 32678 ft 467 kts 132°
2026-04-27 09:12 23.78770 81.24245 32675 ft 470 kts 132°
2026-04-27 09:13 23.74533 81.29714 32679 ft 472 kts 132°
2026-04-27 09:13 23.70287 81.35190 32684 ft 472 kts 132°
2026-04-27 09:14 23.66045 81.40655 32677 ft 472 kts 132°
2026-04-27 09:14 23.61803 81.46116 32685 ft 472 kts 132°
2026-04-27 09:15 23.57558 81.51571 32685 ft 472 kts 132°
2026-04-27 09:15 23.53314 81.57021 32683 ft 472 kts 132°
2026-04-27 09:16 23.49051 81.62491 32685 ft 477 kts 133°
2026-04-27 09:16 23.44740 81.68009 32683 ft 483 kts 133°
2026-04-27 09:17 23.40388 81.73579 32682 ft 483 kts 133°
2026-04-27 09:17 23.36032 81.79149 32681 ft 483 kts 133°
2026-04-27 09:18 23.31678 81.84709 32680 ft 482 kts 133°
2026-04-27 09:18 23.27319 81.90270 32683 ft 483 kts 133°
2026-04-27 09:19 23.22962 81.95822 32681 ft 483 kts 133°
2026-04-27 09:19 23.18586 82.01390 32685 ft 489 kts 135°
2026-04-27 09:20 23.14143 82.07034 32691 ft 492 kts 135°
2026-04-27 09:20 23.09723 82.12650 32681 ft 492 kts 135°
2026-04-27 09:21 23.05296 82.18310 32677 ft 492 kts 134°
2026-04-27 09:21 23.00946 82.24058 32683 ft 492 kts 133°
2026-04-27 09:22 22.96620 82.29820 32684 ft 493 kts 133°
2026-04-27 09:22 22.92285 82.35572 32683 ft 493 kts 133°
2026-04-27 09:23 22.87915 82.41346 32682 ft 498 kts 134°
2026-04-27 09:23 22.83511 82.47154 32686 ft 498 kts 134°
2026-04-27 09:24 22.79105 82.52963 32697 ft 498 kts 134°
2026-04-27 09:24 22.74701 82.58761 32697 ft 498 kts 134°
2026-04-27 09:25 22.70294 82.64557 32696 ft 498 kts 134°
2026-04-27 09:25 22.65913 82.70310 32705 ft 498 kts 134°
2026-04-27 09:26 22.61505 82.76097 32675 ft 498 kts 134°
2026-04-27 09:26 22.57078 82.81898 32704 ft 500 kts 134°
2026-04-27 09:27 22.52648 82.87691 32714 ft 500 kts 134°
2026-04-27 09:27 22.48219 82.93487 32709 ft 500 kts 134°
2026-04-27 09:28 22.43789 82.99274 32709 ft 499 kts 134°
2026-04-27 09:28 22.39358 83.05055 32709 ft 500 kts 134°
2026-04-27 09:29 22.34920 83.10840 32713 ft 500 kts 134°
2026-04-27 09:29 22.30484 83.16615 32683 ft 500 kts 134°
2026-04-27 09:30 22.26028 83.22409 32693 ft 501 kts 133°
2026-04-27 09:30 22.21570 83.28207 32697 ft 502 kts 134°
2026-04-27 09:31 22.17154 83.33976 32686 ft 502 kts 133°
2026-04-27 09:31 22.12800 83.39866 32683 ft 502 kts 132°
2026-04-27 09:32 22.08474 83.45774 32683 ft 502 kts 132°
2026-04-27 09:32 22.04067 83.51596 32679 ft 501 kts 134°
2026-04-27 09:33 21.99575 83.57337 32682 ft 502 kts 134°
2026-04-27 09:33 21.95058 83.63087 32675 ft 503 kts 134°
2026-04-27 09:34 21.90547 83.68847 32667 ft 503 kts 134°
2026-04-27 09:34 21.86045 83.74605 32660 ft 503 kts 134°
2026-04-27 09:35 21.81536 83.80368 32654 ft 503 kts 134°
2026-04-27 09:35 21.77030 83.86120 32669 ft 503 kts 134°
2026-04-27 09:36 21.72520 83.91870 32671 ft 503 kts 135°
2026-04-27 09:36 21.68035 83.97583 32663 ft 504 kts 135°
2026-04-27 09:37 21.63504 84.03418 32666 ft 510 kts 134°
2026-04-27 09:37 21.58979 84.09311 32673 ft 511 kts 134°
2026-04-27 09:38 21.54456 84.15197 32665 ft 510 kts 134°
2026-04-27 09:38 21.49929 84.21067 32667 ft 510 kts 135°
2026-04-27 09:39 21.45394 84.26933 32672 ft 511 kts 135°
2026-04-27 09:39 21.40858 84.32798 32670 ft 510 kts 134°
2026-04-27 09:40 21.36318 84.38664 32673 ft 510 kts 134°
2026-04-27 09:40 21.31791 84.44508 32678 ft 509 kts 134°
2026-04-27 09:41 21.27262 84.50346 32670 ft 509 kts 134°
2026-04-27 09:41 21.22734 84.56176 32672 ft 509 kts 134°
2026-04-27 09:42 21.18230 84.61968 32666 ft 509 kts 134°
2026-04-27 09:42 21.13702 84.67790 32663 ft 508 kts 134°
2026-04-27 09:43 21.09163 84.73618 32662 ft 510 kts 134°
2026-04-27 09:43 21.04614 84.79447 32649 ft 510 kts 133°
2026-04-27 09:44 21.00077 84.85261 32660 ft 508 kts 134°
2026-04-27 09:44 20.95547 84.91056 32658 ft 508 kts 134°
2026-04-27 09:45 20.91017 84.96844 32656 ft 508 kts 134°
2026-04-27 09:45 20.86480 85.02636 32656 ft 508 kts 134°
2026-04-27 09:46 20.81939 85.08429 32660 ft 509 kts 134°
2026-04-27 09:46 20.77382 85.14234 32659 ft 510 kts 134°
2026-04-27 09:47 20.72813 85.20053 32659 ft 510 kts 134°
2026-04-27 09:47 20.68246 85.25861 32659 ft 511 kts 134°
2026-04-27 09:48 20.63673 85.31670 32652 ft 511 kts 134°
2026-04-27 09:48 20.59098 85.37475 32652 ft 511 kts 134°
2026-04-27 09:49 20.54523 85.43274 32646 ft 511 kts 134°
2026-04-27 09:49 20.49934 85.49086 32646 ft 513 kts 134°
2026-04-27 09:50 20.45326 85.54915 32647 ft 514 kts 134°
2026-04-27 09:50 20.40748 85.60702 32630 ft 514 kts 134°
2026-04-27 09:51 20.36148 85.66508 32658 ft 512 kts 134°
2026-04-27 09:51 20.31552 85.72304 32662 ft 512 kts 134°
2026-04-27 09:52 20.26957 85.78093 32663 ft 512 kts 134°
2026-04-27 09:52 20.22121 85.83610 32665 ft 509 kts 139°
2026-04-27 09:53 20.17066 85.88884 32662 ft 508 kts 140°
2026-04-27 09:53 20.11959 85.94101 32988 ft 508 kts 140°
2026-04-27 09:53 20.09402 85.96707 33223 ft 508 kts 140°
2026-04-27 09:54 20.06885 85.99276 33379 ft 508 kts 140°
2026-04-27 09:54 20.04331 86.01883 33527 ft 509 kts 140°
2026-04-27 09:54 20.01778 86.04492 33726 ft 509 kts 140°
2026-04-27 09:54 19.99225 86.07102 33901 ft 509 kts 141°
2026-04-27 09:55 19.96674 86.09711 34080 ft 508 kts 141°
2026-04-27 09:55 19.94127 86.12316 34247 ft 508 kts 141°
2026-04-27 09:55 19.89054 86.17534 34578 ft 508 kts 140°
2026-04-27 09:56 19.84879 86.21928 34679 ft 508 kts 139°
2026-04-27 09:56 19.79886 86.27217 34680 ft 507 kts 139°
2026-04-27 09:57 19.74884 86.32502 34681 ft 507 kts 140°
2026-04-27 09:57 19.69865 86.37787 34691 ft 509 kts 140°
2026-04-27 09:58 19.64835 86.43075 34692 ft 509 kts 140°
2026-04-27 09:58 19.59793 86.48359 34697 ft 509 kts 140°
2026-04-27 09:59 19.54737 86.53619 34702 ft 509 kts 140°
2026-04-27 09:59 19.49675 86.58875 34703 ft 509 kts 140°
2026-04-27 10:00 19.44618 86.64124 34708 ft 509 kts 140°
2026-04-27 10:00 19.39556 86.69376 34712 ft 510 kts 140°
2026-04-27 10:01 19.34514 86.74603 34708 ft 510 kts 140°